This is the latest recevied weather packets stored in our database for station/object SP1BMW-13. If no packets are shown the sender has not sent any weather packets the latest 10 day(s).
| Time | Temp. | Humidity | Pressure | Rain* | Wind** | Luminosity | Snow |
|---|---|---|---|---|---|---|---|
| 1788024332 | 21.67° C | 59% | 1009.8 hPa | 0 mm | 0 m/s | 8 W/m² | - |
| 1788024272 | 22.22° C | 58% | 1010 hPa | 0 mm | 0 m/s | 9 W/m² | - |
| 1788024213 | 22.22° C | 59% | 1010 hPa | 0 mm | 0 m/s | 10 W/m² | - |
| 1788024153 | 22.22° C | 59% | 1010 hPa | 0 mm | 0 m/s | 11 W/m² | - |
| 1788024092 | 22.22° C | 57% | 1009.8 hPa | 0 mm | 0 m/s | 12 W/m² | - |
| 1788024032 | 22.22° C | 55% | 1010.1 hPa | 0 mm | 0 m/s | 13 W/m² | - |
| 1788023972 | 22.22° C | 57% | 1010 hPa | 0 mm | 0 m/s | 14 W/m² | - |
| 1788023915 | 22.22° C | 58% | 1009.8 hPa | 0 mm | 0 m/s | 15 W/m² | - |
| 1788023853 | 22.22° C | 56% | 1010.1 hPa | 0 mm | 0 m/s | 16 W/m² | - |
| 1788023792 | 22.22° C | 57% | 1009.7 hPa | 0 mm | 0 m/s | 16 W/m² | - |
| 1788023732 | 22.22° C | 56% | 1010.1 hPa | 0 mm | 0 m/s | 15 W/m² | - |
| 1788023672 | 22.22° C | 54% | 1010 hPa | 0 mm | 0 m/s | 15 W/m² | - |
| 1788023613 | 22.22° C | 54% | 1009.8 hPa | 0 mm | 0 m/s | 15 W/m² | - |
| 1788023555 | 22.22° C | 54% | 1010 hPa | 0 mm | 0 m/s | 16 W/m² | - |
| 1788023492 | 22.22° C | 55% | 1009.9 hPa | 0 mm | 0 m/s | 17 W/m² | - |
| 1788023432 | 22.78° C | 54% | 1010 hPa | 0 mm | 0 m/s | 19 W/m² | - |
| 1788023372 | 22.78° C | 54% | 1009.8 hPa | 0 mm | 0 m/s | 20 W/m² | - |
| 1788023318 | 22.78° C | 54% | 1009.9 hPa | 0 mm | 0 m/s | 21 W/m² | - |
| 1788023252 | 22.78° C | 54% | 1009.8 hPa | 0 mm | 0.45 m/s, 297° | 22 W/m² | - |
| 1788023197 | 22.78° C | 53% | 1009.8 hPa | 0 mm | 0.45 m/s, 262° | 23 W/m² | - |
| 1788023132 | 22.78° C | 54% | 1009.9 hPa | 0 mm | 0 m/s | 25 W/m² | - |
| 1788023072 | 22.78° C | 53% | 1010 hPa | 0 mm | 0.45 m/s, 287° | 27 W/m² | - |
| 1788023018 | 22.78° C | 54% | 1009.9 hPa | 0 mm | 0 m/s | 28 W/m² | - |
| 1788022952 | 22.78° C | 53% | 1009.8 hPa | 0 mm | 0.45 m/s, 278° | 31 W/m² | - |
| 1788022895 | 22.78° C | 53% | 1009.9 hPa | 0 mm | 0.45 m/s, 267° | 32 W/m² | - |
* Rain latest hour (hover to see other rain measurements)
** Current wind speed in m/s (hover to see current wind gust speed)